Weather in Topchyne

Ukraine / Dnipropetrovsk Region     48°57′04″N   34°47′31″E
temp.,
°C
wind,
m/s
gust,
m/s
humid.,
%
clouds,
%
prec.,
mm/h
press.,
hPa
HPBL,
m
16 may, sun
sun1600:00+17sw336860 0.0 101250
03:00+14s11767 0.0 101311
06:00+15e117596 0.0 101211
09:00+20ne2360100 0.0 1013383
12:00+24ene335090 0.0 10121589
15:00+25ene45415 0.0 10101878
18:00+24ne4755100 0.0 1008550
21:00+17ne4138657 0.8 1007238
17 may, mon
mon1700:00+18ene41092100 3.3 1005221
03:00+17ne3592100 3.3 100480
06:00+16e3789100 0.0 1002175
09:00+20se586841 0.3 1003544
12:00+24se7968100 0.4 10021194
15:00+24sse7966100 0.5 10021460
18:00+23ssw57723 0.3 1003731
21:00+18s4986100 0.4 1005207
18 may, tue
tue1800:00+16sse48936 0.0 1005168
03:00+14ssw4895100 0.0 1006175
06:00+14s3693100 0.0 1006199
09:00+17s4675100 0.0 1007449
12:00+21s566195 0.3 10061404
15:00+22s785575 1.7 10051811
18:00+18ssw6975100 0.4 1005805
21:00+15sse599099 0.7 1005478
19 may, wed
wed1900:00+14s5109184 1.0 1004555
03:00+11sse499616 1.0 1005269
06:00+11sse4109611 0.0 1005372
09:00+16sse687151 0.3 10051089
12:00+16sse5873100 1.3 10041010
15:00+15sse578455 2.8 1004779
18:00+16sw467679 1.7 1004617
21:00+13sw510905 2.1 1006241
20 may, thu
thu2000:00+12wsw71289100 0.0 1008692
03:00+12wsw7138997 0.1 1010689
06:00+11wsw612922 0.0 1011509
09:00+16wsw79710 0.0 1013787
12:00+20wsw68522 0.0 10131416
15:00+22wsw474899 0.0 10142216
18:00+20s356497 0.2 1014294
21:00+16s4973100 0.2 1014143